Track STARLINK-3991 now! 10-day predictions STARLINK-3991 is classified as:
1 52641U 22052AV 22180.58334491 .00060195 00000-0 43053-3 0 9998 2 52641 53.2129 213.1836 0002926 19.2443 205.1243 15.73180956 7580